{"data":{"norad_id":52601,"intl_designator":"2022-052D","name":"STARLINK-4027","alt_names":[],"object_type":"PAYLOAD","status":"ACTIVE","operator":null,"country":"US","launch_date":"2022-05-14","launch_site_code":"AFETR","launch_vehicle":null,"mission":null,"orbit_class":"UNKNOWN","rcs_meters":null,"size_class":null,"mass_kg":null,"dimensions":null,"purposes":["comms"],"wikipedia_slug":null,"has_3d_model":false,"image_url":null,"decayed_at":null,"tle_current":{"epoch":"2026-09-20T03:46:26.254848Z","epoch_age_seconds":92865,"freshness":"FRESH","line1":"1 52601U 22052D   26263.15724832  .00002417  00000+0  80132-4 0  9997","line2":"2 52601  53.1613 117.1529 0001308  70.3063 289.8081 15.35415967241135","mean_motion":15.35415967,"eccentricity":0.0001308,"inclination_deg":53.1613,"raan_deg":117.1529,"arg_perigee_deg":70.3063,"mean_anomaly_deg":289.8081,"bstar":8.0132e-5,"rev_number":24113,"period_min":93.785660104445,"perigee_km":458.79085021776,"apogee_km":460.57962451506,"semimajor_km":6837.8222373664,"source":"CELESTRAK","updated_at":"2026-09-20T09:00:40.067980Z"}}}